Hourly Data Report for October 11, 2013

All times are specified in Local Standard Time (LST). Add 1 hour to adjust for Daylight Saving Time where and when it is observed.

PANGNIRTUNG
NUNAVUT

66°08'36.300" N
65°42'40.500" W
22.60 m
2403049
71826
WXP

Download Data

Hourly Data (October 2013)
Hourly Data Report for October 11, 2013
Temp Definition
°C
Dew Point Temp Definition
°C
Rel Hum Definition
%
Wind Dir Definition
10's deg

Wind Spd Definition
km/h
Visibility Definition
km
Stn Press Definition
kPa
Hmdx Definition


Wind Chill Definition


Weather Definition


TIME
00:00 -5.7 -9.6 74 20 6   101.47   -9 LegendNANA
01:00 -5.9 -9.6 75 20 6   101.51   -9 LegendNANA
02:00 -5.9 -9.7 74 20 7   101.57   -9 LegendNANA
03:00 -7.0 -10.7 75 17 4   101.63   -9 LegendNANA
04:00 -6.0 -10.2 72 24 6   101.67   -9 LegendNANA
05:00 -7.0 -11.2 72 5 4   101.69   -9 LegendNANA
06:00 -6.9 -10.9 73 19 2   101.73   -8 LegendNANA
07:00 -7.4 -11.8 71 14 6   101.76   -11 LegendNANA
08:00 -7.3 -11.9 70 14 6   101.77   -10 LegendNANA
09:00 -6.6 -11.2 70 21 4   101.76   -9 LegendNANA
10:00 -7.0 -11.2 72 18 6   101.78   -10 LegendNANA
11:00 -7.0 -11.5 70 18 6   101.79   -10 LegendNANA
12:00 -6.9 -11.7 69 18 6   101.79   -10 LegendNANA
13:00 -6.8 -12.2 65 18 4   101.81   -9 LegendNANA
14:00 -6.7 -12.1 65 19 6   101.83   -10 LegendNANA
15:00 -5.0 -10.7 64 22 17   101.83   -11 LegendNANA
16:00 -5.6 -10.7 67 23 15   101.84   -11 LegendNANA
17:00 -5.7 -11.6 63 24 13   101.84   -11 LegendNANA
18:00 -5.7 -11.0 66 28 6   101.84   -9 LegendNANA
19:00 -5.9 -11.4 65 23 4   101.85   -8 LegendNANA
20:00 -6.6 -12.2 64 23 2   101.86   -8 LegendNANA
21:00 -7.3 -12.3 67 21 4   101.87   -9 LegendNANA
22:00 -7.0 -12.6 64 16 7   101.80   -11 LegendNANA
23:00 -6.5 -10.9 71 20 7   101.82   -10 LegendNANA

Notes on Data Quality.

Legend

  • E = Estimated
  • M = Missing
  • NA = Not Available
  • ‡ = Partner data that is not subject to review by the National Climate Archives
Date modified: